Weather Roundup
Issued by NWS Chicago, IL

Home | Current Version | Previous Version | Text Only | Print | Product List | Glossary On
Versions: 1 2 3 4 5 6 7 8 9 10 11 12 13 14 15 16 17 18 19 20 21 22 23 24 25 26 27 28 29 30 31 32 33 34 35 36 37 38 39 40 41 42 43 44 45 46 47 48 49 50
000
NZUS59 KLOT 201210
HRRLOT

CHICAGO AREA WEATHER ROUNDUP
NATIONAL WEATHER SERVICE CHICAGO/ROMEOVILLE IL
600 AM CST SAT DEC 20 2014

NOTE: "FAIR" INDICATES FEW OR NO CLOUDS BELOW 12,000 FEET WITH NO
SIGNIFICANT WEATHER AND/OR OBSTRUCTIONS TO VISIBILITY.

* THESE STATIONS ARE NOT UNDER NWS QUALITY CONTROL. THEY ALSO MAY NOT
  REPORT WEATHER SUCH AS PRECIPITATION OR FOG.

ILZ005-006-012>014-019>023-201300-
NORTHEAST ILLINOIS

CITY           SKY/WX    TMP DP  RH WIND       PRES   REMARKS
OHARE          CLOUDY    29  23  78 CALM      30.27R
6HR MIN TEMP:  28; 6HR MAX TEMP:  30;

MIDWAY         CLOUDY    32  25  75 SW6       30.28S WCI  26
6HR MIN TEMP:  32; 6HR MAX TEMP:  33;

AURORA         CLOUDY    28  23  81 CALM      30.27S HAZE
6HR MIN TEMP:  22; 6HR MAX TEMP:  28;

LANSING*       CLOUDY    29  27  90 CALM      30.29R
JOLIET*        CLOUDY    28  24  84 CALM      30.29S
WAUKEGAN       CLOUDY    27  21  78 NW3       30.26F
6HR MIN TEMP:  27; 6HR MAX TEMP:  27;

DUPAGE AIRPORT CLOUDY    28  24  85 S3        30.26S
6HR MIN TEMP:  24; 6HR MAX TEMP:  28;

WHEELING       CLOUDY    28  23  81 CALM      30.29S
6HR MIN TEMP:  28; 6HR MAX TEMP:  29;

KANKAKEE*      CLOUDY    28  27  95 CALM      30.29S FOG
MORRIS*        CLOUDY    27  25  94 CALM      30.27S
LEWIS AIRPORT* CLOUDY    28  26  92 CALM      30.27F FOG
NORTHERLY IS     N/A     32  24  73 SW5         N/A  WCI  27
$$

WIZ051-052-058>065-066-070>072-201300-
SOUTHEAST WISCONSIN

CITY           SKY/WX    TMP DP  RH WIND       PRES   REMARKS
MILWAUKEE      CLOUDY    27  18  69 W3        30.27S
6HR MIN TEMP:  27; 6HR MAX TEMP:  28;

KENOSHA*       CLOUDY    27  21  78 NW3       30.27S
RACINE*        CLOUDY    27  19  72 W5        30.29S WCI  22
BURLINGTON     CLOUDY    25  21  85 CALM      30.26S
WAUKESHA       CLOUDY    21  18  86 CALM      30.27R
WEST BEND      CLOUDY    25  19  80 CALM      30.25S
$$

INZ001>003-010>013-019-020-201300-
NORTHWEST INDIANA

CITY           SKY/WX    TMP DP  RH WIND       PRES   REMARKS
GARY*          NOT AVBL
MICHIGAN CITY* NOT AVBL
RENSSELAER*    NOT AVBL
VALPARAISO     CLOUDY    29  25  85 W5        30.28S WCI  24
$$

LMZ740>746-201300-
SOUTHERN LAKE MICHIGAN

STATION/POSITION TIME  SKY/WX   TEMP WIND        PRES    VSBY
                                AIR  DIR/SP/G
                 (UTC)          (F)  (DEG/KT/KT) (MB)    (MI)
HARRISON CRIB    1200            31  190/  8/  9   N/A
BURNHAM HARBOR   1200            32  190/  4/  6   N/A
CALUMET HARBOR   1200            31  200/  3/  4 1024.1S
BURNS HARBOR     NOT AVBL
MICHIGAN CITY    NOT AVBL
$$

ABBREVIATIONS USED IN REMARKS
   TC - TEMPERATURE IN CELSIUS
  WCI - WIND CHILL INDEX
   HX - HEAT INDEX
  VSB - VISIBILITY
$$


USA.gov is the U.S. government's official web portal to all federal, state and local government web resources and services.